Clermont County, Batavia, OH

8:45 AM EDT on June 25, 2017 (GMT -0400)
Clermont County, Batavia

Weather History for KI69 - December, 2013

Change the Weather History Date:

Wednesday, December 4, 2013

  Actual Average (KLUK) Record (KLUK)
Temperature  
Mean Temperature 57 °F -  
Max Temperature 64 °F 46 °F 70 °F (1998)
Min Temperature 50 °F 29 °F 11 °F (1966)
Degree Days  
Heating Degree Days 8    
Growing Degree Days 7 (Base 50)    
Moisture  
Dew Point 52 °F    
Average Humidity 85    
Maximum Humidity 100    
Minimum Humidity 72    
Precipitation  
Precipitation 0.01 in - - ()
Sea Level Pressure  
Sea Level Pressure 29.81 in    
Wind  
Wind Speed 4 mph (SSE)    
Max Wind Speed 10 mph    
Max Gust Speed 18 mph    
Visibility 9 miles    
Events Rain    
Averages and records for this station are not official NWS values.
T = Trace of Precipitation, MM = Missing Value Source: NWS Daily Summary

Daily Weather History Graph

Daily Weather History Graph

Search for Another Location

Airport or City:

Trip Planner

Search our weather history database for the weather conditions in past years. The results will help you decide how hot, cold, wet, or windy it might be!

Date:

Astronomy

Dec. 04, 2013 Rise Set
Actual Time 7:40 AM EST 5:14 PM EST
Civil Twilight 7:10 AM EST 5:43 PM EST
Nautical Twilight 6:37 AM EST 6:17 PM EST
Astronomical Twilight 6:04 AM EST 6:49 PM EST
Moon 9:07 AM EST (12/4) 7:23 PM EST (12/4)
Length of Visible Light 10h 33m
Length of Day
9h 34m
Waxing Crescent, 4% of the Moon is Illuminated
Dec 4
Waxing Crescent
Dec 9
First Quarter
Dec 17
Full
Dec 25
Last Quarter
Jan 1
New

Hourly Weather History & Observations

Time (EST) Temp. Dew Point Humidity Pressure Visibility Wind Dir Wind Speed Gust Speed Precip Events Conditions
12:18 AM 50.0 °F 44.6 °F 82% 29.86 in 10.0 mi SE 3.5 mph - N/A   Overcast
12:37 AM 50.0 °F 46.4 °F 87% 29.86 in 10.0 mi SSE 3.5 mph - N/A   Overcast
12:58 AM 50.0 °F 46.4 °F 87% 29.85 in 10.0 mi SE 3.5 mph - N/A   Overcast
1:18 AM 50.0 °F 46.4 °F 87% 29.84 in 10.0 mi SSE 4.6 mph - N/A   Overcast
1:37 AM 50.0 °F 46.4 °F 87% 29.83 in 10.0 mi SSE 3.5 mph - N/A   Overcast
1:58 AM 50.0 °F 46.4 °F 87% 29.83 in 10.0 mi SSE 3.5 mph - N/A   Overcast
2:18 AM 50.0 °F 46.4 °F 87% 29.82 in 10.0 mi SSE 4.6 mph - N/A   Mostly Cloudy
2:37 AM 50.0 °F 46.4 °F 87% 29.82 in 10.0 mi South 3.5 mph - N/A   Scattered Clouds
2:58 AM 50.0 °F 46.4 °F 87% 29.83 in 10.0 mi SSE 3.5 mph - N/A   Mostly Cloudy
3:18 AM 50.0 °F 48.2 °F 94% 29.85 in 10.0 mi Calm Calm - N/A   Mostly Cloudy
3:37 AM 51.8 °F 48.2 °F 88% 29.85 in 10.0 mi Calm Calm - N/A   Overcast
3:58 AM 51.8 °F 48.2 °F 88% 29.86 in 10.0 mi Calm Calm - N/A   Overcast
4:18 AM 51.8 °F 50.0 °F 94% 29.85 in 10.0 mi South 4.6 mph - N/A   Overcast
4:37 AM 51.8 °F 50.0 °F 94% 29.86 in 10.0 mi South 3.5 mph - N/A   Overcast
4:58 AM 51.8 °F 50.0 °F 94% 29.86 in 10.0 mi South 4.6 mph - N/A   Overcast
5:17 AM 51.8 °F 50.0 °F 94% 29.86 in 10.0 mi South 3.5 mph - N/A   Overcast
5:37 AM 51.8 °F 50.0 °F 94% 29.86 in 10.0 mi South 3.5 mph - N/A   Overcast
5:58 AM 51.8 °F 50.0 °F 94% 29.86 in 10.0 mi South 3.5 mph - N/A   Overcast
6:18 AM 51.8 °F 50.0 °F 94% 29.86 in 10.0 mi Calm Calm - N/A   Mostly Cloudy
6:37 AM 50.0 °F 48.2 °F 94% 29.86 in 7.0 mi Calm Calm - N/A   Clear
6:58 AM 50.0 °F 50.0 °F 100% 29.86 in 7.0 mi Calm Calm - N/A   Clear
7:18 AM 50.0 °F 48.2 °F 94% 29.86 in 7.0 mi Calm Calm - N/A   Mostly Cloudy
7:37 AM 50.0 °F 50.0 °F 100% 29.86 in 7.0 mi Calm Calm - N/A   Overcast
7:58 AM 50.0 °F 50.0 °F 100% 29.87 in 7.0 mi SE 3.5 mph - N/A   Overcast
8:18 AM 50.0 °F 50.0 °F 100% 29.87 in 5.0 mi Calm Calm - N/A   Overcast
8:37 AM 50.0 °F 50.0 °F 100% 29.88 in 5.0 mi SSE 3.5 mph - N/A   Overcast
8:58 AM 51.8 °F 50.0 °F 94% 29.88 in 7.0 mi SSE 3.5 mph - N/A   Overcast
9:18 AM 51.8 °F 51.8 °F 100% 29.88 in 7.0 mi SE 3.5 mph - N/A   Overcast
9:37 AM 51.8 °F 51.8 °F 100% 29.88 in 10.0 mi SE 3.5 mph - N/A   Overcast
9:58 AM 53.6 °F 51.8 °F 94% 29.88 in 10.0 mi SSE 4.6 mph - N/A   Overcast
10:18 AM 53.6 °F 51.8 °F 94% 29.88 in 10.0 mi SE 4.6 mph - N/A   Overcast
10:37 AM 55.4 °F 51.8 °F 88% 29.88 in 10.0 mi SE 4.6 mph - N/A   Overcast
10:58 AM 55.4 °F 51.8 °F 88% 29.87 in 10.0 mi SE 4.6 mph - N/A   Overcast
11:18 AM 55.4 °F 51.8 °F 88% 29.86 in 7.0 mi South 4.6 mph - N/A Rain Rain
11:37 AM 55.4 °F 53.6 °F 94% 29.85 in 5.0 mi SSE 6.9 mph - 0.01 in Rain Light Rain
11:58 AM 55.4 °F 53.6 °F 94% 29.83 in 7.0 mi SSE 5.8 mph - 0.01 in   Overcast
12:17 PM 57.2 °F 55.4 °F 94% 29.82 in 10.0 mi SSE 6.9 mph - N/A   Overcast
12:37 PM 59.0 °F 55.4 °F 88% 29.82 in 10.0 mi SSE 5.8 mph - N/A   Overcast
12:58 PM 59.0 °F 55.4 °F 88% 29.80 in 10.0 mi SSE 6.9 mph - N/A   Overcast
1:17 PM 60.8 °F 55.4 °F 82% 29.80 in 10.0 mi South 5.8 mph - N/A   Overcast
1:37 PM 60.8 °F 55.4 °F 82% 29.78 in 10.0 mi South 5.8 mph - N/A   Overcast
1:58 PM 62.6 °F 57.2 °F 82% 29.77 in 10.0 mi SSE 5.8 mph - N/A   Overcast
2:17 PM 62.6 °F 55.4 °F 77% 29.77 in 10.0 mi South 6.9 mph - N/A   Overcast
2:38 PM 62.6 °F 55.4 °F 77% 29.77 in 10.0 mi SSE 6.9 mph - N/A   Overcast
2:58 PM 62.6 °F 55.4 °F 77% 29.77 in 10.0 mi South 5.8 mph - N/A   Overcast
3:17 PM 62.6 °F 55.4 °F 77% 29.76 in 10.0 mi SSE 4.6 mph - N/A   Overcast
3:37 PM 62.6 °F 55.4 °F 77% 29.75 in 10.0 mi SSE 5.8 mph - N/A   Mostly Cloudy
3:58 PM 64.4 °F 55.4 °F 73% 29.75 in 10.0 mi South 4.6 mph - N/A   Scattered Clouds
4:17 PM 64.4 °F 55.4 °F 73% 29.75 in 10.0 mi South 8.1 mph - N/A   Scattered Clouds
4:37 PM 62.6 °F 55.4 °F 77% 29.74 in 10.0 mi South 6.9 mph - N/A   Scattered Clouds
4:58 PM 62.6 °F 55.4 °F 77% 29.75 in 10.0 mi SSE 4.6 mph - N/A   Scattered Clouds
5:17 PM 62.6 °F 55.4 °F 77% 29.74 in 10.0 mi SSE 6.9 mph - N/A   Scattered Clouds
5:38 PM 62.6 °F 55.4 °F 77% 29.75 in 10.0 mi SSE 6.9 mph - N/A   Clear
5:58 PM 60.8 °F 55.4 °F 82% 29.75 in 10.0 mi SSE 5.8 mph - N/A   Clear
6:17 PM 60.8 °F 53.6 °F 77% 29.75 in 10.0 mi SSE 5.8 mph - N/A   Clear
6:38 PM 62.6 °F 53.6 °F 72% 29.76 in 10.0 mi South 6.9 mph - N/A   Clear
6:58 PM 62.6 °F 53.6 °F 72% 29.76 in 10.0 mi South 8.1 mph - N/A   Mostly Cloudy
7:17 PM 62.6 °F 53.6 °F 72% 29.76 in 10.0 mi South 6.9 mph - N/A   Mostly Cloudy
7:38 PM 62.6 °F 53.6 °F 72% 29.76 in 10.0 mi South 8.1 mph - N/A   Clear
7:58 PM 62.6 °F 53.6 °F 72% 29.76 in 10.0 mi South 6.9 mph - N/A   Clear
8:17 PM 62.6 °F 53.6 °F 72% 29.76 in 10.0 mi South 8.1 mph - N/A   Clear
8:38 PM 62.6 °F 53.6 °F 72% 29.76 in 10.0 mi South 6.9 mph - N/A   Clear
8:58 PM 62.6 °F 53.6 °F 72% 29.76 in 10.0 mi South 8.1 mph - N/A   Clear
9:17 PM 62.6 °F 53.6 °F 72% 29.76 in 10.0 mi South 9.2 mph - N/A   Clear
9:38 PM 62.6 °F 55.4 °F 77% 29.76 in 10.0 mi South 9.2 mph - N/A   Clear
9:58 PM 62.6 °F 55.4 °F 77% 29.77 in 10.0 mi SSW 9.2 mph 17.3 mph N/A   Clear
10:17 PM 62.6 °F 55.4 °F 77% 29.78 in 10.0 mi SSW 10.4 mph 17.3 mph N/A   Clear
10:38 PM 62.6 °F 55.4 °F 77% 29.79 in 10.0 mi SSW 8.1 mph 18.4 mph N/A   Clear
10:58 PM 62.6 °F 55.4 °F 77% 29.78 in 10.0 mi SSW 9.2 mph - N/A   Scattered Clouds
11:17 PM 64.4 °F 55.4 °F 73% 29.79 in 10.0 mi SSW 9.2 mph 16.1 mph N/A   Scattered Clouds
11:38 PM 64.4 °F 55.4 °F 73% 29.79 in 10.0 mi SSW 10.4 mph - N/A   Clear
11:58 PM 64.4 °F 55.4 °F 73% 29.79 in 10.0 mi SSW 10.4 mph 18.4 mph N/A   Clear